EW9931 Weather Reports


time (UTC)temp
C
wind
direction
speed
KPH
gust
KPH
rain 1hr
cm
rain 24hr
cm
rain mn
cm
humidity
%
barometer
mb
20260508030106 13 192 0.0 0.0 0.00 0.00 0.00 35 1009.2
20260508024548 13 192 0.0 0.0 0.00 0.00 0.00 33 1009.3
20260508023048 14 192 0.0 0.0 0.00 0.00 0.00 1008.1
20260508021547 14 76 0.0 0.0 0.00 0.00 0.00 30 1009.2
20260508020046 15 234 0.0 0.0 0.00 0.00 0.00 28 1010.2
20260508014546 15 232 0.0 0.0 0.00 0.00 0.00 30 1009.6
20260508013045 15 199 1.6 0.0 0.00 0.00 0.00 29 1009.6
20260508011553 16 145 1.6 0.0 0.00 0.00 0.00 30 1009.0
20260508010045 17 168 1.6 0.0 0.00 0.00 0.00 27 1008.6
20260508004543 18 147 1.6 0.0 0.00 0.00 0.00 26 1008.0
20260508003049 18 295 1.6 0.0 0.00 0.00 0.00 27 1008.1
20260508001543 18 133 1.6 0.0 0.00 0.00 0.00 26 1008.6
20260508000040 18 138 3.2 0.0 0.00 0.00 0.00 30 1008.0
20260507234541 18 200 3.2 0.0 0.00 0.00 0.00 26 1008.0
20260507233041 19 133 1.6 0.0 0.00 0.00 0.00 26 1007.6
20260507231550 19 329 1.6 0.0 0.00 0.00 0.00 27 1007.4
20260507230040 19 217 1.6 0.0 0.00 0.00 0.00 27 1007.3
20260507224551 18 280 1.6 0.0 0.00 0.00 0.00 24 1007.7
20260507223043 18 210 3.2 0.0 0.00 0.00 0.00 26 1007.7
20260507221539 18 144 3.2 0.0 0.00 0.00 0.00 24 1008.4
20260507220037 19 240 1.6 0.0 0.00 0.00 0.00 24 1007.8
20260507214539 19 288 1.6 0.0 0.00 0.00 0.00 22 1007.7
20260507213036 19 237 1.6 0.0 0.00 0.00 0.00 24 1007.8
20260507211531 20 268 1.6 0.0 0.00 0.00 0.00 23 1007.9
20260507210056 19 205 0.0 0.0 0.00 0.00 0.00 24 1007.9
20260507204530 19 186 1.6 0.0 0.00 0.00 0.00 27 1007.8
20260507203029 19 282 1.6 0.0 0.00 0.00 0.00 17 1008.2
20260507201534 20 1 0.0 0.0 0.00 0.00 0.00 18 1008.4
20260507200047 20 251 1.6 0.0 0.00 0.00 0.00 18 1008.4
20260507194526 19 350 1.6 0.0 0.00 0.00 0.00 20 1008.2
20260507193040 18 332 1.6 0.0 0.00 0.00 0.00 21 1008.9
20260507191527 18 79 1.6 0.0 0.00 0.00 0.00 21 1009.1
20260507190031 18 239 1.6 0.0 0.00 0.00 0.00 22 1009.1
20260507184515 17 308 0.0 0.0 0.00 0.00 0.00 22 1009.3
20260507183018 17 332 1.6 0.0 0.00 0.00 0.00 23 1009.8
20260507181507 16 316 0.0 0.0 0.00 0.00 0.00 25 1009.9
20260507180004 16 83 1.6 0.0 0.00 0.00 0.00 24 1009.9
20260507174608 16 62 0.0 0.0 0.00 0.00 0.00 26 1010.0
20260507173133 16 66 0.0 0.0 0.00 0.00 0.00 26 1010.5
20260507171601 15 247 0.0 0.0 0.00 0.00 0.00 27 1010.5
20260507170055 15 320 0.0 0.0 0.00 0.00 0.00 27 1009.9
20260507164600 15 336 0.0 0.0 0.00 0.00 0.00 28 1009.8
20260507163051 14 354 0.0 0.0 0.00 0.00 0.00 28 1010.5
20260507161559 13 40 0.0 0.0 0.00 0.00 0.00 27 1010.6
20260507160101 12 41 0.0 0.0 0.00 0.00 0.00 29 1010.7
20260507154541 11 48 0.0 0.0 0.00 0.00 0.00 31 1011.0
20260507153036 10 49 0.0 0.0 0.00 0.00 0.00 40 1011.4
20260507151532 8 49 0.0 0.0 0.00 0.00 0.00 42 1012.4
20260507150028 7 49 0.0 0.0 0.00 0.00 0.00 52 1011.7
20260507144535 6 49 0.0 0.0 0.00 0.00 0.00 64 1012.1
20260507143023 5 49 0.0 0.0 0.00 0.00 0.00 67 1012.1
20260507141526 4 49 0.0 0.0 0.00 0.00 0.00 66 1012.4
20260507140023 4 49 0.0 0.0 0.00 0.00 0.00 64 1011.4
20260507134521 4 49 0.0 0.0 0.00 0.00 0.00 62 1011.4
20260507133020 4 49 0.0 0.0 0.00 0.00 0.00 61 1011.3
20260507131520 4 49 0.0 0.0 0.00 0.00 0.00 61 1011.1
20260507130027 4 49 0.0 0.0 0.00 0.00 0.00 60 1010.0
20260507124517 4 49 0.0 0.0 0.00 0.00 0.00 60 1009.4
20260507123021 4 49 0.0 0.0 0.00 0.00 0.00 61 1009.3
20260507121514 4 49 0.0 0.0 0.00 0.00 0.00 59 1009.5
20260507120014 4 49 0.0 0.0 0.00 0.00 0.00 60 1009.4
20260507114512 4 49 0.0 0.0 0.00 0.00 0.00 60 1009.4
20260507113011 4 49 0.0 0.0 0.00 0.00 0.00 60 1009.4
20260507111511 5 49 0.0 0.0 0.00 0.00 0.00 61 1009.5
20260507110010 5 49 0.0 0.0 0.00 0.00 0.00 62 1009.8
20260507104508 5 49 0.0 0.0 0.00 0.00 0.00 63 1009.3
20260507103007 5 49 0.0 0.0 0.00 0.00 0.00 63 1009.5
20260507101513 5 49 0.0 0.0 0.00 0.00 0.00 64 1009.4
20260507100005 5 49 0.0 0.0 0.00 0.00 0.00 64 1009.9
20260507094503 5 49 0.0 0.0 0.00 0.00 0.00 64 1010.0
20260507093003 5 49 0.0 0.0 0.00 0.00 0.00 65 1010.2
20260507091502 5 49 0.0 0.0 0.00 0.00 0.00 64 1010.2
20260507090113 5 49 0.0 0.0 0.00 0.00 0.00 65 1009.8
20260507084601 5 49 0.0 0.0 0.00 0.00 0.00 65 1009.9
20260507083059 5 49 0.0 0.0 0.00 0.00 0.00 65 1009.9
20260507081558 5 49 0.0 0.0 0.00 0.00 0.00 65 1009.7
20260507080055 5 49 0.0 0.0 0.00 0.00 0.00 64 1010.3
20260507074558 6 49 0.0 0.0 0.00 0.00 0.00 62 1010.3
20260507073054 6 49 0.0 0.0 0.00 0.00 0.00 59 1010.3
20260507071554 6 49 0.0 0.0 0.00 0.00 0.00 55 1010.4
20260507070055 6 49 0.0 0.0 0.00 0.00 0.00 50 1010.9
20260507064607 6 49 0.0 0.0 0.00 0.00 0.00 47 1011.1
20260507063056 6 49 0.0 0.0 0.00 0.00 0.00 47 1011.0
20260507061552 6 49 0.0 0.0 0.00 0.00 0.00 43 1011.1
20260507060058 6 49 0.0 0.0 0.00 0.00 0.00 42 1012.3
20260507054603 6 49 0.0 0.0 0.00 0.00 0.00 46 1011.4
20260507053052 7 49 0.0 0.0 0.00 0.00 0.00 45 1011.3
20260507051551 7 49 0.0 0.0 0.00 0.00 0.00 44 1011.3
20260507050050 7 49 0.0 0.0 0.00 0.00 0.00 43 1011.3
20260507044550 7 49 0.0 0.0 0.00 0.00 0.00 41 1011.3
20260507043057 8 49 0.0 0.0 0.00 0.00 0.00 42 1011.3
20260507041600 8 49 0.0 0.0 0.00 0.00 0.00 42 1011.1
20260507040055 9 49 0.0 0.0 0.00 0.00 0.00 42 1010.9
20260507034550 10 49 0.0 0.0 0.00 0.00 0.00 39 1010.2
20260507033050 10 49 0.0 0.0 0.00 0.00 0.00 38 1009.7
20260507031546 11 49 0.0 0.0 0.00 0.00 0.00 35 1009.6